Tracking 28052 objects as of 23-Sep-2023
HD Live streaming from Space Station
objects crossing your sky now

FALCON 9 R/B

Track FALCON 9 R/B now!
10-day predictions


NORAD ID: 44480
Int'l Code: 2019-050B
Perigee: 172.6 km
Apogee: 24,967.0 km
Inclination: 26.0 °
Period: 432.4 minutes
Semi major axis: 18940 km
RCS: Unknown
Launch date: August 6, 2019
Source: United States (US)
Launch site: AIR FORCE EASTERN TEST RANGE (AFETR)

Note: This is a ROCKET BODY
Your satellite tracking list
Your tracking list is empty




NASA's NSSDC Master Catalog

Two Line Element Set (TLE):
1 44480U 19050B   23263.97907533  .00074046 -11763-6  10574-2 0  9999
2 44480  25.9784 156.6658 6545230 278.8031  17.3623  3.33047244 40565
Source of the keplerian elements: AFSPC